Stations météo

Publicité
Carcassonne, France (7635): Température de l'air & dewpoint: 17.01.2017 01:00:00 - 23.01.2017 01:00:00 (CET)Carcassonne, France (7635): Température de l'air 5cm: 17.01.2017 01:00:00 - 23.01.2017 01:00:00 (CET)Carcassonne, France (7635): Température de l'air -20cm & Température de l'air -100cm: 17.01.2017 01:00:00 - 23.01.2017 01:00:00 (CET)Carcassonne, France (7635): Vitesse du vent & gusts: 17.01.2017 01:00:00 - 23.01.2017 01:00:00 (CET)Carcassonne, France (7635): Direction du vent: 17.01.2017 01:00:00 - 23.01.2017 01:00:00 (CET)Carcassonne, France (7635): reduced air pressure: 17.01.2017 01:00:00 - 23.01.2017 01:00:00 (CET)Carcassonne, France (7635): visibility: 17.01.2017 01:00:00 - 23.01.2017 01:00:00 (CET)Carcassonne, France (7635): Ensoleillement: 17.01.2017 01:00:00 - 23.01.2017 01:00:00 (CET)Carcassonne, France (7635): Quantités de précipitations: 17.01.2017 01:00:00 - 23.01.2017 01:00:00 (CET)
Date & Time tt [°C] td [°C] tt 5cm [°C] tt -20cm [°C] tt -100cm [°C] ff [km/h] ff [knt] fx [km/h] fx [knt] dd ppp [hPa] vv [km] sd [min] rr [mm]
23.01.2017 01:00:00 4,3 3,7 3,8 4,6 7,7 - - 7 4 - 1022,5 2,8 0 0,2
23.01.2017 00:00:00 4,2 3,6 3,7 4,6 7,8 3 1 6 3 SW 1022,7 1,9 0 0,0
22.01.2017 23:00:00 4,4 3,8 3,8 4,6 7,8 4 2 6 3 S 1022,6 3,5 0 0,2
22.01.2017 22:00:00 4,5 3,8 4,0 4,6 7,8 4 2 10 5 S 1022,5 6 0 0,0
22.01.2017 21:00:00 4,6 3,7 4,1 4,5 7,8 6 3 14 7 WSW 1022,4 10 0 0,0
22.01.2017 20:00:00 4,6 3,7 4,1 4,5 7,8 7 4 12 7 W 1022,3 18 0 0,3
22.01.2017 19:00:00 4,5 3,8 4,0 4,5 7,7 8 5 12 6 SW 1022,2 4,7 0 1,6
22.01.2017 18:00:00 4,7 3,8 4,2 4,4 7,8 4 2 10 5 S 1022,0 6 0 0,6
22.01.2017 17:00:00 4,8 3,6 4,3 4,3 7,8 6 4 15 8 WSW 1021,7 11 0 0,8
22.01.2017 16:00:00 4,8 3,6 4,4 4,1 7,7 7 4 14 8 W 1021,8 10 0 0,2
22.01.2017 15:00:00 5,1 3,8 4,9 4,0 7,8 6 4 12 7 W 1021,6 11 0 0,4
22.01.2017 14:00:00 5,2 3,2 - - - 4 2 5 3 WSW 1022,1 5 - 2,0
22.01.2017 13:00:00 6,2 3,0 6,1 3,6 7,8 0 0 6 3 N 1022,3 11 0 0,4
22.01.2017 12:00:00 5,8 2,8 4,5 3,5 7,8 4 2 8 4 N 1022,9 25 0 0,0
22.01.2017 11:00:00 4,2 2,7 2,9 3,5 7,8 5 3 9 5 NW 1022,9 15 0 0,0
22.01.2017 10:00:00 2,6 1,4 1,9 3,4 7,8 0 0 8 5 N 1022,9 10 0 0,0
22.01.2017 09:00:00 2,2 1,2 1,2 3,5 7,8 2 1 12 6 SE 1022,2 12 0 0,0
22.01.2017 08:00:00 1,5 0,3 0,6 3,5 7,8 2 1 11 6 ESE 1021,9 10 0 0,0
22.01.2017 07:00:00 1,0 -0,3 0,1 3,5 7,8 0 0 8 4 N 1021,2 13 0 0,0
22.01.2017 06:00:00 0,5 -0,5 -0,3 3,6 7,8 3 2 9 5 SW 1020,9 12 0 0,0
22.01.2017 05:00:00 0,1 -0,6 -2,3 3,7 7,8 5 3 8 4 W 1020,8 11 0 0,0
22.01.2017 04:00:00 -0,6 -1,4 -2,6 3,8 7,8 2 1 3 2 W 1021,2 8 0 0,0
22.01.2017 03:00:00 -0,1 -1,1 -1,8 3,8 7,8 0 0 4 2 N 1021,0 10 0 0,0
22.01.2017 02:00:00 -0,1 -1,0 -2,9 3,9 7,8 0 0 5 3 N 1021,4 14 0 0,0
22.01.2017 01:00:00 -0,4 -1,7 -3,2 4,1 7,8 3 2 10 6 W 1022,0 12 0 0,0
22.01.2017 00:00:00 1,2 -0,1 -1,1 4,2 7,8 7 4 11 6 S 1022,4 19 0 0,0
21.01.2017 23:00:00 1,2 -0,3 -1,8 4,3 7,8 6 3 12 7 S 1022,4 25 0 0,0
21.01.2017 22:00:00 1,3 -0,6 -2,8 4,4 7,8 3 1 10 6 SW 1022,5 30 0 0,0
21.01.2017 21:00:00 1,3 -1,1 -2,7 4,6 7,8 4 2 7 4 SW 1022,4 26 0 0,0
21.01.2017 20:00:00 1,6 -1,1 -2,5 4,6 7,8 5 3 8 4 S 1022,5 35 0 0,0
21.01.2017 19:00:00 3,2 -0,4 -1,2 4,6 7,9 4 2 5 3 SW 1022,2 50 0 0,0
21.01.2017 18:00:00 5,8 0,1 1,5 4,5 7,8 3 1 6 3 W 1021,6 50 0 0,0
21.01.2017 17:00:00 9,2 0,9 8,0 4,3 7,8 5 3 8 5 SW 1021,2 60 14 0,0
21.01.2017 16:00:00 10,7 0,4 11,4 4,0 7,9 4 2 11 6 S 1021,2 60 17 0,0
21.01.2017 15:00:00 10,3 -0,2 11,3 3,8 7,9 5 3 15 8 ESE 1021,3 53 0 0,0
21.01.2017 14:00:00 10,1 -1,0 10,8 3,5 7,9 9 5 23 13 ESE 1021,9 56 10 0,0
21.01.2017 13:00:00 10,1 -0,4 10,2 3,3 7,9 16 9 26 14 E 1022,6 57 40 0,0
21.01.2017 12:00:00 8,9 -0,7 8,4 3,1 7,9 13 7 26 14 E 1023,5 39 46 0,0
21.01.2017 11:00:00 6,2 1,1 4,0 3,0 7,9 2 1 9 5 ESE 1023,8 20 16 0,0
21.01.2017 10:00:00 3,4 1,3 2,0 3,1 7,9 5 3 9 5 ESE 1023,9 13 0 0,0
21.01.2017 09:00:00 2,1 0,9 -0,9 3,1 7,9 4 2 9 5 SSE 1023,7 25 0 0,0
21.01.2017 08:00:00 0,8 -0,1 -3,2 3,2 7,9 3 2 6 4 S 1023,7 18 0 0,0
21.01.2017 07:00:00 0,0 -1,0 -3,8 3,3 7,9 3 2 5 3 S 1023,9 17 0 0,0
21.01.2017 06:00:00 0,4 -1,2 -2,9 3,4 8,0 3 2 5 3 SSE 1024,0 14 0 0,0
21.01.2017 05:00:00 1,6 -1,0 -2,0 3,4 8,0 0 0 10 5 N 1024,2 19 0 0,0
21.01.2017 04:00:00 4,3 0,1 2,6 3,4 8,0 7 4 18 10 SE 1024,2 25 0 0,0
21.01.2017 03:00:00 3,8 1,2 2,1 3,4 8,0 5 3 17 9 ESE 1024,2 18 0 0,0
21.01.2017 02:00:00 4,4 1,6 - - - 8 4 22 12 ESE 1024,7 14 - 0,0
21.01.2017 01:00:00 5,1 0,7 3,9 3,4 8,0 11 6 22 12 ESE 1025,1 11 0 0,0
21.01.2017 00:00:00 5,0 0,2 3,2 3,4 8,0 9 5 19 10 SE 1025,5 22 0 0,0
20.01.2017 23:00:00 4,5 0,1 1,0 3,4 8,0 7 4 15 8 SE 1025,6 24 0 0,0
20.01.2017 22:00:00 4,2 2,1 2,1 3,4 8,1 8 4 14 7 S 1025,7 15 0 0,0
20.01.2017 21:00:00 4,7 2,7 2,7 3,3 8,1 8 4 15 8 S 1025,5 15 0 0,0
20.01.2017 20:00:00 5,1 2,6 3,9 3,2 8,0 9 5 19 10 SSE 1025,2 13 0 0,0
20.01.2017 19:00:00 6,0 2,8 5,2 3,1 8,1 9 5 19 10 SE 1024,8 11 0 0,0
20.01.2017 18:00:00 6,0 3,3 5,3 2,9 8,1 8 5 17 9 SSE 1024,7 14 0 0,0
20.01.2017 17:00:00 6,5 3,3 6,1 2,7 8,1 9 5 23 12 SE 1024,7 15 0 0,0
20.01.2017 16:00:00 6,7 2,6 6,8 2,5 8,1 10 5 21 12 SSE 1025,0 19 0 0,0
20.01.2017 15:00:00 7,6 1,2 7,7 2,3 8,1 13 7 36 20 SSE 1024,9 19 3 0,0
20.01.2017 14:00:00 7,9 -0,8 6,4 2,3 8,2 16 9 32 17 ESE 1025,0 25 7 0,0
20.01.2017 13:00:00 6,2 -2,2 6,1 2,2 8,1 15 8 38 21 SE 1025,9 32 3 0,0
20.01.2017 12:00:00 6,4 -2,5 6,5 2,2 8,2 23 12 39 21 ESE 1026,1 33 14 0,0
20.01.2017 11:00:00 6,0 -2,6 2,1 2,3 8,2 17 9 30 16 ESE 1026,4 38 6 0,0
20.01.2017 10:00:00 0,9 -2,2 -3,0 2,3 8,2 3 2 8 4 NNE 1026,3 11 10 0,0
20.01.2017 09:00:00 -1,9 -4,1 -5,7 2,3 8,2 3 2 12 6 NE 1026,2 10 0 0,0
20.01.2017 08:00:00 -2,5 -4,7 -5,5 2,3 8,2 6 3 10 6 NE 1026,3 8 0 0,0
20.01.2017 07:00:00 -0,9 -3,4 -2,2 2,3 8,2 7 4 10 5 ENE 1026,0 9 0 0,0
20.01.2017 06:00:00 -2,1 -3,5 -3,3 2,4 8,3 4 2 7 4 NNW 1026,3 6 0 0,0
20.01.2017 05:00:00 -2,3 -4,0 -3,6 2,4 8,3 4 2 9 5 SE 1026,8 6 0 0,0
20.01.2017 04:00:00 -3,4 -4,4 -6,2 2,5 8,3 3 2 7 4 S 1027,3 6 0 0,0
20.01.2017 03:00:00 -3,2 -4,8 -5,5 2,5 8,3 2 1 4 2 SSE 1027,6 6 0 0,0
20.01.2017 02:00:00 -2,6 -4,0 -3,3 2,6 8,4 0 0 5 3 N 1027,7 6 0 0,0
20.01.2017 01:00:00 -3,2 -4,6 -4,1 2,6 8,4 2 1 4 2 SSE 1027,8 8 0 0,0
20.01.2017 00:00:00 -3,6 -4,9 -6,9 2,6 8,4 2 1 7 4 S 1028,1 7 0 0,0
19.01.2017 23:00:00 -3,6 -5,3 -6,3 2,7 8,4 0 0 10 5 N 1028,3 7 0 0,0
19.01.2017 22:00:00 -2,7 -4,7 -5,4 2,7 8,4 6 3 11 6 S 1028,2 8 0 0,0
19.01.2017 21:00:00 -3,1 -5,0 - - - 5 3 8 4 S 1028,1 10 - 0,0
19.01.2017 20:00:00 -1,8 -5,1 -4,3 2,8 8,4 5 3 11 6 SSW 1028,0 11 0 0,0
19.01.2017 19:00:00 -1,3 -4,1 - - - 8 4 11 6 W 1027,5 8 - -
19.01.2017 18:00:00 0,5 -4,7 -1,4 2,8 8,5 8 4 13 7 W 1027,2 13 21 0,0
19.01.2017 17:00:00 2,5 -4,7 2,4 2,6 8,5 9 5 15 8 WNW 1027,0 16 60 0,0
19.01.2017 16:00:00 3,1 -4,6 4,5 2,4 8,5 10 6 19 10 WNW 1026,8 17 60 0,0
19.01.2017 15:00:00 3,0 -4,5 4,9 2,2 8,5 13 7 23 12 WNW 1026,9 16 60 0,0
19.01.2017 14:00:00 2,3 -4,7 4,6 2,2 8,5 15 8 24 13 WNW 1027,4 14 60 0,0
19.01.2017 13:00:00 1,5 -5,4 4,0 2,2 8,6 15 8 25 14 WNW 1028,1 14 60 0,0
19.01.2017 12:00:00 0,5 -6,2 - - - 13 7 26 14 W 1028,6 16 - 0,0
19.01.2017 11:00:00 -0,7 -6,9 0,7 2,3 8,6 14 8 25 14 W 1028,7 18 60 0,0
19.01.2017 10:00:00 -1,9 -6,8 -4,1 2,4 8,6 13 7 22 12 W 1028,6 19 60 0,0
19.01.2017 09:00:00 -3,9 -7,2 -5,8 2,4 8,6 8 4 21 11 SW 1028,4 15 19 0,0
19.01.2017 08:00:00 -4,0 -7,4 -4,8 2,5 8,6 12 6 23 13 WSW 1027,9 14 0 0,0
19.01.2017 07:00:00 -4,1 -7,4 -5,2 2,5 8,6 14 8 23 13 WSW 1027,6 14 0 0,0
19.01.2017 06:00:00 -4,6 -7,4 -5,3 2,6 8,7 14 8 21 12 WSW 1027,6 14 0 0,0
19.01.2017 05:00:00 -4,1 -7,2 -4,8 2,7 8,7 13 7 22 12 WSW 1027,8 13 0 0,0
19.01.2017 04:00:00 -3,9 -7,2 -4,4 2,7 8,7 14 7 26 14 W 1028,0 13 0 0,0
19.01.2017 03:00:00 -3,6 -7,2 -4,1 2,8 8,7 13 7 28 15 W 1027,9 14 0 0,0
19.01.2017 02:00:00 -3,3 -7,1 -4,0 2,8 8,7 16 9 33 18 W 1027,3 14 0 0,0
19.01.2017 01:00:00 -3,4 -7,0 -3,9 2,9 8,7 15 8 26 14 W 1027,3 10 0 0,0
19.01.2017 00:00:00 -3,1 -6,9 -3,7 3,0 8,7 16 9 32 17 W 1027,4 15 0 0,0
18.01.2017 23:00:00 -3,2 -6,7 -3,7 3,1 8,8 13 7 26 14 W 1027,5 13 0 0,0
18.01.2017 22:00:00 -3,0 -6,1 -3,5 3,1 8,8 16 9 25 14 W 1027,4 12 0 0,0
18.01.2017 21:00:00 -2,6 -6,1 -3,2 3,2 8,8 16 9 29 16 WNW 1027,5 14 0 0,0
18.01.2017 20:00:00 -1,8 -6,2 -2,5 3,2 8,8 15 8 28 15 W 1027,2 18 0 0,0
18.01.2017 19:00:00 -1,5 -6,3 -2,1 3,3 8,8 18 10 31 17 W 1026,8 22 0 0,0
18.01.2017 18:00:00 -1,0 -6,6 -1,6 3,3 8,8 16 9 29 16 W 1026,6 24 19 0,0
18.01.2017 17:00:00 0,0 -6,4 -0,4 3,2 8,8 22 12 34 18 W 1026,2 25 31 0,0
18.01.2017 16:00:00 0,4 -6,0 0,3 3,1 8,9 22 12 37 20 W 1026,2 30 22 0,0
18.01.2017 15:00:00 0,7 -6,0 1,3 2,9 8,9 24 13 40 21 WNW 1025,8 17 51 0,0
18.01.2017 14:00:00 0,9 -6,4 - - - 26 14 39 21 WNW 1025,8 16 - 0,0
18.01.2017 13:00:00 0,8 -5,9 1,8 2,8 8,9 26 14 41 22 WNW 1026,5 17 60 0,0
18.01.2017 12:00:00 -0,2 -6,2 1,1 2,9 8,9 26 14 39 21 WNW 1026,5 17 60 0,0
18.01.2017 11:00:00 -1,6 -6,5 -0,8 3,0 8,9 24 13 35 19 WNW 1026,8 17 60 0,0
18.01.2017 10:00:00 -2,6 -6,1 -4,2 3,0 8,9 16 9 31 17 W 1026,6 16 60 0,0
18.01.2017 09:00:00 -4,2 -6,8 -5,0 3,1 8,9 17 9 27 14 W 1026,4 20 18 0,0
18.01.2017 08:00:00 -4,6 -7,0 -5,0 3,2 9,0 15 8 23 12 W 1026,0 21 0 0,0
18.01.2017 07:00:00 -4,2 -7,1 -4,7 3,3 9,0 15 8 27 15 W 1025,8 26 0 0,0
18.01.2017 06:00:00 -3,4 -6,9 -4,1 3,4 9,0 14 8 26 14 W 1025,5 29 0 0,0
18.01.2017 05:00:00 -3,3 -6,6 -4,2 3,5 9,0 13 7 20 11 W 1025,7 29 0 0,0
18.01.2017 04:00:00 -3,2 -6,3 -3,9 3,6 9,0 12 6 30 16 W 1025,7 26 0 0,0
18.01.2017 03:00:00 -2,7 -6,3 -3,2 3,7 9,0 16 8 24 13 W 1025,5 29 0 0,0
18.01.2017 02:00:00 -2,1 -6,1 -2,8 3,8 9,0 14 8 27 14 W 1025,3 31 0 0,0
18.01.2017 01:00:00 -1,7 -5,9 -2,5 3,9 9,0 16 8 26 14 W 1025,3 34 0 0,0
18.01.2017 00:00:00 -1,6 -5,5 -2,4 4,0 9,0 17 9 29 16 W 1025,2 30 0 0,0
17.01.2017 23:00:00 -1,1 -5,5 -1,8 4,1 9,0 17 9 29 16 W 1025,1 33 0 0,0
17.01.2017 22:00:00 -0,6 -5,4 -1,4 4,3 9,1 19 11 37 20 WNW 1024,8 34 0 0,0
17.01.2017 21:00:00 0,4 -5,8 -0,3 4,4 9,0 26 14 51 28 WNW 1024,6 39 0 0,0
17.01.2017 20:00:00 0,7 -5,8 0,1 4,5 9,1 30 16 51 28 W 1024,1 41 0 0,0
17.01.2017 19:00:00 0,8 -5,5 0,2 4,6 9,1 26 14 52 28 W 1023,7 39 0 0,0
17.01.2017 18:00:00 0,9 -5,1 0,3 4,7 9,1 26 14 50 27 W 1023,6 34 10 0,0
17.01.2017 17:00:00 1,3 -5,6 1,0 4,6 9,1 28 15 49 26 W 1023,3 41 39 0,0
17.01.2017 16:00:00 1,9 -5,3 1,6 4,5 9,1 31 17 60 32 W 1023,1 30 42 0,0
17.01.2017 15:00:00 1,8 -4,5 1,4 4,3 9,1 34 18 56 30 W 1022,9 29 23 0,0
17.01.2017 14:00:00 1,9 -5,7 1,6 4,1 9,1 31 17 55 30 WNW 1023,1 22 50 0,0
17.01.2017 13:00:00 1,7 -5,7 2,6 4,0 9,1 36 19 55 30 WNW 1023,4 25 58 0,0
17.01.2017 12:00:00 1,5 -5,2 1,3 4,1 9,1 32 17 55 30 WNW 1023,7 31 58 0,0
17.01.2017 11:00:00 0,4 -6,0 0,8 4,2 9,1 29 16 54 29 WNW 1023,9 35 60 0,0
17.01.2017 10:00:00 -0,7 -5,9 -0,8 4,3 9,1 40 22 58 32 WNW 1023,1 36 39 0,0
17.01.2017 09:00:00 -1,2 -5,4 -1,9 4,5 9,1 18 10 64 34 WSW 1023,6 37 12 0,0
17.01.2017 08:00:00 -1,1 -5,7 -1,5 4,6 9,1 43 23 68 37 NW 1021,5 43 0 0,0
17.01.2017 07:00:00 -0,6 -5,4 -1,2 4,8 9,1 43 23 69 37 NW 1022,0 44 0 0,0
17.01.2017 06:00:00 -0,7 -5,1 -1,4 4,9 9,1 34 18 51 28 NW 1022,0 10 0 0,0
17.01.2017 05:00:00 -0,6 -4,8 -1,4 5,1 9,1 27 15 44 24 WNW 1022,7 45 0 0,0
17.01.2017 04:00:00 -0,6 -4,5 -1,5 5,3 9,1 18 10 37 20 WNW 1022,9 10 0 0,0
17.01.2017 03:00:00 -0,2 -4,6 -0,8 5,5 9,1 24 13 40 22 WNW 1023,5 55 0 0,0
17.01.2017 02:00:00 0,0 -4,3 -0,6 5,7 9,1 24 13 36 20 WNW 1023,2 60 0 0,0
17.01.2017 01:00:00 0,1 -4,4 -0,9 5,9 9,1 20 11 29 15 NW 1023,1 60 0 0,0

tt = Température de l'air
td = dewpoint
tt 5cm = Température de l'air 5cm
tt -20cm = Température de l'air -20cm
tt -100cm = Température de l'air -100cm
ff = Vitesse du vent
fx = gusts
dd = Direction du vent
ppp = reduced air pressure
vv = visibility
sd = Ensoleillement
rr = Quantités de précipitations

stations d'obs. à proximité